Paris / Charles De Gaulle, France

4:34 AM CEST on September 23, 2017 (GMT +0200)
Charles de Gaulle

Weather History for LFPG - May, 2013

Change the Weather History Date:

Wednesday, May 29, 2013

  Actual Average Record
Temperature  
Mean Temperature 52 °F -  
Max Temperature 60 °F 71 °F 85 °F (2017)
Min Temperature 44 °F 54 °F 44 °F (2000)
Degree Days  
Heating Degree Days 13    
Growing Degree Days 2 (Base 50)    
Moisture  
Dew Point 42 °F    
Average Humidity 69    
Maximum Humidity 93    
Minimum Humidity 42    
Precipitation  
Precipitation 0.00 in - - ()
Sea Level Pressure  
Sea Level Pressure 29.66 in    
Wind  
Wind Speed 6 mph ()    
Max Wind Speed 13 mph    
Max Gust Speed -    
Visibility 6.2 miles    
Events Fog , Rain    
Averages and records for this station are not official NWS values.
T = Trace of Precipitation, MM = Missing Value Source: Averaged Metar Reports

Daily Weather History Graph

Daily Weather History Graph

Search for Another Location

Airport or City:

Trip Planner

Search our weather history database for the weather conditions in past years. The results will help you decide how hot, cold, wet, or windy it might be!

Date:

Astronomy

May. 29, 2013 Rise Set
Actual Time 5:52 AM CEST 9:42 PM CEST
Civil Twilight 5:11 AM CEST 10:23 PM CEST
Nautical Twilight 4:15 AM CEST 11:20 PM CEST
Astronomical Twilight 2:49 AM CEST 12:48 AM CEST
Moon 12:43 AM CEST (5/29) 10:46 AM CEST (5/29)
Length of Visible Light 17h 12m
Length of Day
15h 50m
Waning Gibbous, 76% of the Moon is Illuminated
May 29
Waning Gibbous
May 31
Last Quarter
Jun 8
New
Jun 16
First Quarter
Jun 23
Full

Hourly Weather History & Observations

Time (CEST) Temp. Windchill Dew Point Humidity Pressure Visibility Wind Dir Wind Speed Gust Speed Precip Events Conditions
12:00 AM 51.8 °F - 42.8 °F 71% 29.62 in 6.2 mi WSW 9.2 mph - N/A   Mostly Cloudy
12:30 AM 50.0 °F - 42.8 °F 76% 29.65 in 6.2 mi West 8.1 mph - N/A   Mostly Cloudy
1:00 AM 48.2 °F - 42.8 °F 82% 29.65 in 6.2 mi WSW 4.6 mph - N/A   Scattered Clouds
1:30 AM 48.2 °F - 42.8 °F 82% 29.65 in 6.2 mi WSW 5.8 mph - N/A   Scattered Clouds
2:00 AM 48.2 °F - 44.6 °F 87% 29.65 in - WNW 3.5 mph - N/A   Clear
2:30 AM 48.2 °F - 42.8 °F 82% 29.65 in 6.2 mi NW 2.3 mph - N/A   Mostly Cloudy
3:00 AM 48.2 °F - 44.6 °F 87% 29.65 in 6.2 mi WNW 3.5 mph - N/A   Mostly Cloudy
3:30 AM 48.2 °F - 44.6 °F 87% 29.65 in - West 3.5 mph - N/A   Clear
4:00 AM 46.4 °F 45.2 °F 42.8 °F 87% 29.62 in - WSW 3.5 mph - N/A   Clear
4:30 AM 46.4 °F 43.5 °F 42.8 °F 87% 29.62 in - WSW 5.8 mph - N/A   Clear
5:00 AM 46.4 °F 44.3 °F 42.8 °F 87% 29.65 in 6.2 mi SW 4.6 mph - N/A   Mostly Cloudy
5:30 AM 46.4 °F 45.2 °F 42.8 °F 87% 29.62 in 6.2 mi West 3.5 mph - N/A   Mostly Cloudy
6:00 AM 44.6 °F - 42.8 °F 93% 29.62 in 6.2 mi West 2.3 mph - N/A Fog Shallow Fog
6:30 AM 44.6 °F - 42.8 °F 93% 29.62 in 6.2 mi Variable 2.3 mph - N/A Fog Shallow Fog
7:00 AM 44.6 °F 41.4 °F 42.8 °F 93% 29.65 in - SW 5.8 mph - N/A   Clear
7:30 AM 46.4 °F 43.5 °F 42.8 °F 87% 29.62 in - SW 5.8 mph - N/A   Clear
8:00 AM 48.2 °F - 44.6 °F 87% 29.65 in 6.2 mi SW 5.8 mph - N/A   Scattered Clouds
8:30 AM 48.2 °F - 44.6 °F 87% 29.65 in 6.2 mi Variable 3.5 mph - N/A   Scattered Clouds
9:00 AM 50.0 °F - 44.6 °F 82% 29.65 in 6.2 mi Variable 3.5 mph - N/A   Scattered Clouds
9:30 AM 51.8 °F - 44.6 °F 76% 29.65 in 6.2 mi West 4.6 mph - N/A   Scattered Clouds
10:00 AM 51.8 °F - 42.8 °F 71% 29.65 in 6.2 mi SW 4.6 mph - N/A   Scattered Clouds
10:30 AM 53.6 °F - 42.8 °F 67% 29.65 in 6.2 mi SW 8.1 mph - N/A   Scattered Clouds
11:00 AM 55.4 °F - 42.8 °F 63% 29.65 in 6.2 mi WSW 8.1 mph - N/A   Scattered Clouds
11:30 AM 55.4 °F - 42.8 °F 63% 29.65 in 6.2 mi WSW 6.9 mph - N/A   Scattered Clouds
12:00 PM 55.4 °F - 41.0 °F 58% 29.65 in 6.2 mi WSW 11.5 mph - N/A   Scattered Clouds
12:30 PM 57.2 °F - 41.0 °F 55% 29.65 in 6.2 mi West 6.9 mph - N/A   Scattered Clouds
1:00 PM 57.2 °F - 41.0 °F 55% 29.65 in 6.2 mi West 12.7 mph - N/A   Scattered Clouds
1:30 PM 57.2 °F - 41.0 °F 55% 29.65 in 6.2 mi West 10.4 mph - N/A   Mostly Cloudy
2:00 PM 59.0 °F - 39.2 °F 48% 29.65 in 6.2 mi West 9.2 mph - N/A   Mostly Cloudy
2:30 PM 60.8 °F - 37.4 °F 42% 29.65 in 6.2 mi West 9.2 mph - N/A   Mostly Cloudy
3:00 PM 59.0 °F - 41.0 °F 51% 29.65 in - NW 10.4 mph - N/A   Clear
3:30 PM 59.0 °F - 37.4 °F 45% 29.65 in 6.2 mi West 6.9 mph - N/A   Mostly Cloudy
4:00 PM 59.0 °F - 39.2 °F 48% 29.65 in 6.2 mi WNW 9.2 mph - N/A   Mostly Cloudy
4:30 PM 60.8 °F - 39.2 °F 45% 29.65 in 6.2 mi West 10.4 mph - N/A   Mostly Cloudy
5:00 PM 59.0 °F - 39.2 °F 48% 29.65 in 6.2 mi NW 8.1 mph - N/A   Scattered Clouds
5:30 PM 60.8 °F - 39.2 °F 45% 29.65 in - WNW 11.5 mph - N/A   Clear
6:00 PM 60.8 °F - 39.2 °F 45% 29.65 in - WNW 6.9 mph - N/A   Clear
6:30 PM 60.8 °F - 39.2 °F 45% 29.65 in - NW 10.4 mph - N/A   Clear
7:00 PM 59.0 °F - 41.0 °F 51% 29.65 in - WNW 6.9 mph - N/A   Clear
7:30 PM 59.0 °F - 41.0 °F 51% 29.68 in - WNW 5.8 mph - N/A   Clear
8:00 PM 59.0 °F - 41.0 °F 51% 29.68 in 6.2 mi NW 6.9 mph - N/A   Unknown
8:30 PM 55.4 °F - 42.8 °F 63% 29.68 in 6.2 mi North 9.2 mph - N/A   Mostly Cloudy
9:00 PM 53.6 °F - 42.8 °F 67% 29.68 in 6.2 mi North 10.4 mph - N/A   Mostly Cloudy
9:30 PM 53.6 °F - 44.6 °F 72% 29.71 in 6.2 mi North 6.9 mph - N/A Rain Light Rain Showers
10:00 PM 51.8 °F - 46.4 °F 82% 29.71 in 6.2 mi NNW 4.6 mph - N/A   Overcast
10:30 PM 51.8 °F - 44.6 °F 76% 29.74 in - North 3.5 mph - N/A   Clear
11:00 PM 51.8 °F - 44.6 °F 76% 29.74 in - Calm Calm - N/A   Clear
11:30 PM 51.8 °F - 44.6 °F 76% 29.74 in 6.2 mi Calm Calm - N/A Rain Light Rain